Weather in Golyany

Russia / Udmurt Republic     56°45′43″N   53°44′22″E
temp.,
°C
wind,
m/s
gust,
m/s
humid.,
%
clouds,
%
prec.,
mm/h
press.,
hPa
HPBL,
m
17 april, sat
sat1701:00+3nne310701 0.0 1028239
04:00+1nne39755 0.0 1028191
07:00+2nne310645 0.0 1028297
10:00+7ne57445 0.0 1028772
13:00+10ne45385 0.0 10271197
16:00+11nne44375 0.0 10261394
19:00+8nne22554 0.0 102518
22:00+5n22670 0.0 102528
18 april, sun
sun1801:00+4nnw22730 0.0 102415
04:00+2nnw228052 0.0 102420
07:00+4nnw26770 0.0 1024190
10:00+8nne566018 0.0 10251047
13:00+5ne6867100 0.0 1027713
16:00+7ne67314 0.0 10271653
19:00+5nne48435 0.0 1028308
22:00+2ene512486 0.0 1030512
19 april, mon
mon1901:000ene511525 0.0 1032438
04:00−1ene4115416 0.0 1033396
07:000ene510490 0.0 1034665
10:00+4e69290 0.0 10351499
13:00+6e68270 0.0 10341745
16:00+6e57260 0.0 10341794
19:00+4ene47370 0.0 1034247
22:000ene39520 0.0 1035170
20 april, tue
tue2001:00−1e27540 0.0 1036147
04:00−1e26530 0.0 1036124
07:00+1ese35440 0.0 1037221
10:00+5ese34270 0.0 10361101
13:00+8ese34240 0.0 10351338
16:00+9ese33240 0.0 10331344
19:00+6ese22390 0.0 103329
22:00+3ese22480 0.0 103313
21 april, wed
wed2101:00+1ese22530 0.0 103311
04:000ese22555 0.0 103314
07:00+3ese274982 0.0 1033195
10:00+9sse583293 0.0 1032938
13:00+12sse682598 0.0 10301176
16:00+13sse682669 0.0 10291391
19:00+10sse493858 0.0 1029231
22:00+6se31253100 0.0 1030239